Weather History for KFZY - August, 2014

Change the Weather History Date:

Wednesday, August 6, 2014

  Actual Average (KSYR) Record (KSYR)
Temperature  
Mean Temperature 68 °F 71 °F  
Max Temperature 75 °F 81 °F 95 °F (2001)
Min Temperature 62 °F 61 °F 44 °F (1994)
Degree Days  
Heating Degree Days 0 0  
Month to date heating degree days 0  
Since 1 June heating degree days 69  
Since 1 July heating degree days 8  
Cooling Degree Days 2 6  
Month to date cooling degree days 36  
Year to date cooling degree days 382  
Since 1 June cooling degree days 352  
Growing Degree Days 18 (Base 50)    
Moisture  
Dew Point 59 °F    
Average Humidity 81    
Maximum Humidity 96    
Minimum Humidity 40    
Precipitation  
Precipitation 0.00 in 0.11 in 1.06 in (1915)
Month to date precipitation 0.69  
Year to date precipitation 21.71  
Snow  
Snow 0.00 in 0.00 in 0.00 in (2002)
Month to date snowfall 0.0  
Since 1 June snowfall 0.0  
Since 1 July snowfall 0.0  
Snow Depth -    
Sea Level Pressure  
Sea Level Pressure 29.95 in    
Wind  
Wind Speed 2 mph (WNW)    
Max Wind Speed 12 mph    
Max Gust Speed -    
Visibility 6 miles    
Events Fog    
T = Trace of Precipitation, MM = Missing Value Source: NWS Daily Summary

Daily Weather History Graph

Daily Weather History Graph

Search for Another Location

Airport or City:

Trip Planner

Search our weather history database for the weather conditions in past years. The results will help you decide how hot, cold, wet, or windy it might be!

Date:

Astronomy

Aug. 06, 2014 Rise Set
Actual Time 6:00 AM EDT 8:21 PM EDT
Civil Twilight 5:28 AM EDT 8:53 PM EDT
Nautical Twilight 4:49 AM EDT 9:32 PM EDT
Astronomical Twilight 4:05 AM EDT 10:16 PM EDT
Moon 4:37 PM EDT (8/6) 1:33 AM EDT (8/6)
Length of Visible Light 15h 24m
Length of Day
14h 20m
Waxing Gibbous, 77% of the Moon is Illuminated
Aug 6
Waxing Gibbous
Aug 10
Full
Aug 17
Last Quarter
Aug 25
New
Sep 2
First Quarter

Hourly Weather History & Observations

Time (EDT) Temp. Dew Point Humidity Pressure Visibility Wind Dir Wind Speed Gust Speed Precip Events Conditions
12:31 AM 64.0 °F 62.1 °F 93% 29.97 in 7.0 mi Calm Calm - N/A   Overcast
12:38 AM 64.0 °F 62.1 °F 93% 29.97 in 7.0 mi SSW 3.5 mph - N/A   Mostly Cloudy
12:54 AM 64.0 °F 62.1 °F 93% 29.96 in 6.0 mi Calm Calm - N/A   Mostly Cloudy
1:52 AM 64.4 °F 62.6 °F 94% 29.96 in 5.0 mi Calm Calm - N/A   Mostly Cloudy
1:54 AM 64.0 °F 62.1 °F 93% 29.95 in 5.0 mi Calm Calm - N/A   Mostly Cloudy
2:27 AM 64.0 °F 62.1 °F 93% 29.95 in 5.0 mi Calm Calm - N/A   Mostly Cloudy
2:42 AM 64.0 °F 62.1 °F 93% 29.94 in 4.0 mi Calm Calm - N/A   Mostly Cloudy
2:54 AM 64.9 °F 62.1 °F 90% 29.94 in 5.0 mi SW 3.5 mph - N/A   Overcast
3:19 AM 64.9 °F 63.0 °F 93% 29.94 in 4.0 mi SW 5.8 mph - N/A   Mostly Cloudy
3:36 AM 64.9 °F 63.0 °F 93% 29.94 in 4.0 mi SW 3.5 mph - N/A   Overcast
3:45 AM 64.9 °F 63.0 °F 93% 29.94 in 4.0 mi WSW 3.5 mph - N/A   Overcast
3:54 AM 64.9 °F 63.0 °F 93% 29.94 in 4.0 mi Calm Calm - N/A   Overcast
4:21 AM 64.9 °F 62.1 °F 90% 29.94 in 5.0 mi Calm Calm - N/A   Overcast
4:43 AM 64.0 °F 62.1 °F 93% 29.94 in 2.5 mi Calm Calm - N/A   Scattered Clouds
4:52 AM 64.4 °F 60.8 °F 88% 29.94 in 2.0 mi Calm Calm - N/A   Scattered Clouds
4:54 AM 64.0 °F 61.0 °F 90% 29.94 in 2.0 mi Calm Calm - N/A   Partly Cloudy
5:00 AM 62.1 °F 61.0 °F 96% 29.94 in 1.0 mi Calm Calm - N/A   Scattered Clouds
5:07 AM 62.1 °F 60.1 °F 93% 29.95 in 0.2 mi Calm Calm - N/A Fog Fog
5:47 AM 62.1 °F 60.1 °F 93% 29.95 in 1.2 mi Calm Calm - N/A   Overcast
5:54 AM 63.0 °F 61.0 °F 93% 29.95 in 1.0 mi Calm Calm - N/A   Mist
6:01 AM 62.1 °F 61.0 °F 96% 29.95 in 0.5 mi Calm Calm - N/A Fog Fog
6:54 AM 63.0 °F 61.0 °F 93% 29.95 in 0.2 mi Calm Calm - N/A Fog Fog
7:22 AM 64.0 °F 62.1 °F 93% 29.96 in 1.2 mi Calm Calm - N/A   Overcast
7:32 AM 64.0 °F 63.0 °F 96% 29.96 in 3.0 mi Calm Calm - N/A   Overcast
7:41 AM 64.9 °F 63.0 °F 93% 29.96 in 3.0 mi Calm Calm - N/A   Overcast
7:54 AM 64.9 °F 63.0 °F 93% 29.95 in 4.0 mi Calm Calm - N/A   Overcast
8:54 AM 70.0 °F 60.1 °F 71% 29.96 in 10.0 mi WNW 4.6 mph - N/A   Mostly Cloudy
9:54 AM 71.1 °F 57.9 °F 63% 29.96 in 10.0 mi NW 6.9 mph - N/A   Overcast
10:54 AM 72.0 °F 59.0 °F 64% 29.97 in 10.0 mi NNW 8.1 mph - N/A   Partly Cloudy
11:54 AM 73.9 °F 57.9 °F 57% 29.97 in 10.0 mi NW 6.9 mph - N/A   Partly Cloudy
12:54 PM 73.9 °F 54.0 °F 50% 29.96 in 10.0 mi North 10.4 mph - N/A   Clear
1:54 PM 73.9 °F 51.1 °F 45% 29.96 in 10.0 mi NW 10.4 mph - N/A   Clear
2:54 PM 73.9 °F 50.0 °F 43% 29.96 in 10.0 mi NNW 11.5 mph - N/A   Clear
3:54 PM 73.9 °F 48.0 °F 40% 29.94 in 10.0 mi NNW 10.4 mph - N/A   Clear
4:54 PM 73.0 °F 50.0 °F 44% 29.94 in 10.0 mi NW 9.2 mph - N/A   Clear
5:54 PM 71.1 °F 54.0 °F 55% 29.94 in 10.0 mi WNW 10.4 mph - N/A   Clear
6:54 PM 70.0 °F 54.0 °F 57% 29.94 in 10.0 mi WNW 8.1 mph - N/A   Clear
7:54 PM 66.0 °F 55.0 °F 68% 29.95 in 10.0 mi West 4.6 mph - N/A   Clear
8:54 PM 63.0 °F 55.0 °F 75% 29.96 in 10.0 mi Calm Calm - N/A   Clear
9:54 PM 62.1 °F 55.9 °F 80% 29.96 in 10.0 mi Calm Calm - N/A   Mostly Cloudy
10:54 PM 63.0 °F 55.9 °F 78% 29.96 in 10.0 mi West 3.5 mph - N/A   Mostly Cloudy